Wind_Speed
13 14 15 16 16 15 17 19 17 12 8 8 11 16 19 17 16 19 16 13 15 16 18 20 19 18 21 20 17 16 17 17 19 21 21 23 23 21 20 22 26 26 22 21 21 21 22 24 26 24 23 24 26 27 24 21 27 30 24 20 22 21 18 17 18 18 18 15 13 11 10 9 7 7 7 6 6 6 5 6 7 7 7 6 4 2
13 16 16 16 14 13 15 18 15 12 9 8 8 11 16 16 15 18 17 12 13 15 15 17 19 19 20 21 19 17 16 18 21 21 22 23 22 23 24 24 27 26 23 21 21 23 24 26 26 23 22 24 26 24 22 24 27 26 21 17 17 20 20 18 19 19 17 15 12 11 10 9 8 7 7 6 5 5 5 6 6 6 6 6 5 3
14 17 16 14 12 11 11 13 13 11 11 13 12 11 14 15 15 16 14 9 10 14 15 16 18 19 20 19 18 17 16 17 20 22 22 22 21 23 25 26 27 25 23 21 22 25 27 26 23 20 21 23 24 22 21 24 23 19 16 13 12 15 17 18 18 18 16 14 11 11 10 9 7 7 6 5 4 4 5 5 5 6 6 6 5 4
14 15 15 14 12 11 11 10 11 12 13 15 15 15 14 15 16 15 13 13 13 13 15 15 16 18 16 15 15 15 16 16 19 22 22 21 20 21 24 26 27 25 23 22 25 26 24 21 17 19 23 23 23 20 18 19 17 16 15 15 15 15 17 18 17 18 16 14 12 11 10 8 7 6 5 3 3 4 4 4 5 6 6 7 6 5
12 10 12 13 11 12 13 13 13 14 16 17 18 18 15 14 17 13 10 12 13 14 15 13 15 18 17 16 16 16 17 16 18 21 22 21 19 19 24 27 27 25 22 23 27 26 19 14 13 15 18 21 24 19 15 17 16 15 16 16 17 18 20 20 18 17 14 13 11 10 9 7 6 5 4 2 2 3 3 4 5 6 7 7 7 6
14 9 11 11 10 12 14 14 15 16 16 17 19 20 17 14 16 13 8 11 13 14 17 17 14 14 18 19 18 18 20 19 18 20 21 20 19 20 23 27 27 24 23 26 26 19 10 6 7 10 12 18 24 21 17 19 17 16 15 13 12 16 21 21 19 16 12 11 11 9 8 7 6 5 4 3 1 1 3 4 5 6 7 7 7 7
14 9 10 13 12 14 15 15 16 17 18 17 17 21 19 13 13 13 11 13 15 11 12 18 16 11 15 20 20 20 21 21 19 19 21 19 19 22 23 27 27 23 25 26 16 6 1 2 1 7 12 17 21 20 17 18 19 18 16 12 12 17 21 21 20 17 13 11 11 9 8 7 6 5 4 3 1 1 2 4 4 6 6 7 8 7
15 9 8 12 13 15 16 16 15 18 19 15 11 16 19 14 11 12 13 15 14 9 7 15 18 13 12 18 21 21 20 21 20 20 22 22 23 23 25 28 27 25 26 18 5 1 2 3 1 5 11 16 17 18 19 20 21 22 21 18 18 21 23 22 21 19 14 12 10 9 9 7 6 5 4 2 1 1 2 3 4 5 7 8 8 8
15 15 12 13 14 14 16 15 14 18 20 13 8 12 17 16 14 13 16 17 13 10 10 14 18 13 9 15 19 20 20 20 20 20 21 24 25 25 28 27 25 26 21 9 3 6 6 5 5 4 7 14 16 16 19 21 20 18 17 16 15 17 21 21 19 18 16 13 11 11 11 10 8 6 4 2 1 1 2 3 4 6 8 9 9 9
8 15 15 14 16 14 14 14 13 18 19 10 8 12 14 15 16 14 16 16 12 12 12 13 18 14 8 15 19 17 19 20 19 18 19 22 23 26 30 28 26 24 13 8 9 10 8 7 9 9 9 13 17 17 17 19 19 15 13 13 12 12 15 17 17 18 17 15 14 14 13 12 10 8 6 3 1 1 2 2 4 7 9 11 11 9
5 11 14 16 17 11 8 10 11 15 16 9 8 13 13 13 14 14 15 16 11 11 13 13 17 15 9 13 18 20 20 18 16 16 16 18 20 25 27 26 26 19 9 11 13 11 9 9 10 11 10 13 19 21 20 18 18 18 17 17 16 15 17 19 19 20 19 17 17 16 15 13 11 9 7 4 2 1 2 2 4 7 10 12 12 11
10 11 16 18 17 10 6 9 11 14 15 11 10 14 14 13 14 14 15 14 9 8 13 15 15 15 10 8 12 14 14 14 14 15 16 16 18 20 20 23 24 16 8 12 14 12 12 10 10 11 10 15 19 20 20 19 19 20 19 18 19 19 20 21 22 20 20 17 17 16 16 14 11 10 7 5 2 1 2 1 4 8 10 12 13 11
14 14 16 16 16 12 10 11 13 15 16 14 15 16 14 10 10 11 10 10 9 8 11 12 12 14 11 6 8 10 12 16 17 17 21 19 18 19 20 25 25 18 13 13 14 14 14 13 13 11 11 15 16 16 18 18 19 22 21 19 20 21 20 20 23 21 19 17 17 16 16 14 11 10 8 6 4 3 3 2 5 8 11 13 13 10
15 15 17 17 16 16 14 14 14 15 17 18 18 17 13 8 6 8 7 7 10 10 9 10 9 11 9 7 8 10 15 20 21 21 24 23 23 25 28 30 26 20 16 15 15 15 15 15 14 13 13 14 14 16 19 20 22 25 24 22 22 23 23 21 23 21 16 16 18 17 16 14 11 10 9 8 6 6 5 5 8 10 13 14 12 9
15 14 19 20 17 16 18 17 13 13 17 20 18 17 14 10 8 7 6 5 7 7 9 10 8 10 11 9 10 12 14 17 19 18 17 18 21 23 24 23 20 18 16 16 17 16 17 16 16 16 15 14 14 18 22 23 24 26 26 26 25 26 27 27 27 23 17 19 21 20 17 14 12 11 11 10 9 8 8 8 11 13 14 13 11 9
15 13 17 22 18 15 20 19 13 12 16 18 18 18 16 14 12 7 3 2 5 4 6 10 9 8 6 6 11 14 13 13 13 11 10 12 14 15 16 15 14 13 13 12 13 15 16 15 15 17 18 17 18 21 25 26 27 28 27 28 28 29 29 29 29 26 23 25 26 23 20 16 13 12 12 12 11 10 10 10 12 13 11 10 10 9
15 12 12 19 19 15 17 19 16 15 13 12 17 20 15 12 12 10 5 3 3 6 5 9 11 9 6 7 12 12 12 13 12 11 11 10 9 9 11 9 7 8 7 7 9 11 10 9 10 13 16 18 20 22 24 26 29 30 30 30 32 33 32 30 29 29 29 30 30 28 24 18 15 16 16 15 13 11 11 11 11 11 9 9 10 8
12 11 10 16 19 17 16 16 17 18 14 12 16 18 13 9 11 11 6 5 6 7 8 9 11 12 10 10 13 14 12 11 10 11 12 9 8 8 7 5 4 5 4 3 4 6 5 4 6 8 10 14 18 21 23 26 29 32 33 34 35 36 36 34 33 33 33 33 32 32 29 24 22 23 21 17 14 13 11 11 11 10 8 8 9 6
10 12 11 15 17 17 17 16 17 18 18 17 13 12 13 11 11 11 8 6 6 6 7 9 11 12 12 10 15 16 14 12 11 10 10 9 7 6 4 3 3 4 6 2 2 1 1 3 5 7 8 9 12 17 22 26 27 29 31 34 36 37 37 36 35 35 35 34 34 36 36 33 28 24 21 18 16 14 13 13 12 11 9 9 9 7
11 12 11 12 15 16 17 19 20 18 19 20 14 12 15 13 11 11 11 10 9 6 5 8 10 8 6 8 12 13 16 18 14 10 9 8 6 4 2 1 1 2 4 3 3 3 3 5 5 5 6 7 9 12 18 23 26 27 28 30 30 27 28 30 30 31 33 33 34 35 34 31 25 20 19 19 18 17 16 15 14 13 11 10 10 9
13 14 12 10 11 13 16 20 22 20 19 21 20 17 16 14 12 10 11 11 11 7 5 7 7 4 9 10 9 13 17 18 15 11 10 9 7 6 5 4 5 3 2 3 5 5 5 6 6 6 6 7 8 10 16 22 25 26 26 26 25 20 17 18 19 22 26 27 27 25 23 23 21 19 20 21 20 19 19 17 16 15 13 12 12 11
15 14 14 13 13 15 16 16 19 20 18 18 22 22 19 17 14 10 9 12 14 10 7 7 4 5 11 12 9 11 13 12 13 14 12 11 10 9 8 8 7 5 5 6 8 9 9 10 10 10 8 8 8 11 17 22 24 24 23 22 20 16 12 10 10 13 16 18 20 20 19 22 22 20 22 22 22 21 20 19 17 16 15 14 13 12
17 13 13 17 17 15 13 10 12 16 16 15 17 20 21 20 18 15 10 9 13 13 11 12 6 4 9 13 12 12 11 11 13 13 12 12 10 10 10 8 8 7 9 11 11 12 13 13 14 14 12 11 10 12 18 21 22 22 21 20 19 17 15 13 11 10 11 14 18 19 21 24 23 23 25 24 24 23 21 20 19 18 18 16 15 14
19 14 14 17 15 14 14 12 12 15 17 18 17 16 18 19 19 19 14 7 9 11 11 12 7 4 8 13 13 13 12 12 12 12 13 12 10 10 10 9 9 10 12 13 12 12 13 15 16 17 16 13 11 13 17 19 20 21 22 22 21 19 18 16 13 12 13 15 17 20 22 24 25 27 27 26 25 24 23 22 21 20 20 19 17 16
15 11 10 11 9 11 14 13 13 15 18 22 21 18 18 19 18 17 13 8 9 11 10 9 4 5 8 11 12 13 14 14 13 13 13 12 11 11 11 11 12 13 14 15 14 13 13 13 14 16 17 15 14 14 15 15 17 19 20 20 19 18 16 14 12 13 15 15 17 20 23 25 28 28 27 26 25 25 25 26 24 23 22 21 19 18
13 11 12 11 7 6 7 6 8 10 14 20 21 18 17 19 20 17 14 13 13 13 14 12 3 7 9 10 12 15 18 16 15 14 12 11 12 12 13 13 14 14 16 16 16 15 15 13 13 14 15 15 15 16 16 16 17 17 18 17 15 14 13 11 11 12 13 16 18 21 23 26 26 26 26 26 26 26 27 26 25 25 24 23 21 20
12 12 14 15 12 8 7 10 12 14 12 17 21 17 16 16 18 18 16 16 16 13 15 17 11 12 12 11 12 13 15 14 13 14 13 12 14 14 15 15 15 16 16 15 14 14 15 14 13 14 15 15 16 16 17 17 18 18 17 15 13 13 12 11 11 12 14 16 17 19 21 22 21 22 23 24 25 27 26 24 23 23 24 24 23 22
12 10 12 16 14 9 7 14 16 9 11 9 12 11 11 12 13 15 15 14 13 10 8 7 12 17 15 13 14 13 13 13 12 12 12 13 15 16 17 17 16 16 16 15 14 14 15 14 14 15 16 16 16 16 16 17 17 17 16 15 14 14 13 13 13 13 14 14 14 15 17 18 19 19 19 19 21 22 21 20 20 22 23 22 23 25
11 10 13 15 14 13 9 9 16 11 5 7 0 1 1 4 7 7 6 6 8 8 4 6 12 16 15 13 14 14 13 12 12 12 13 16 19 18 17 16 16 16 17 16 14 14 16 15 14 15 15 15 17 17 16 17 17 17 17 16 16 15 14 14 15 15 14 14 15 15 15 16 15 14 16 19 20 18 17 18 20 25 26 24 25 27
11 9 11 13 12 16 17 12 14 15 5 3 4 5 6 5 7 7 5 4 4 8 12 13 14 16 14 11 15 19 19 17 14 13 15 17 18 18 16 15 15 15 16 16 14 15 17 15 15 16 15 15 16 16 16 16 16 16 15 15 16 16 15 16 17 17 16 15 18 18 15 14 13 14 17 20 20 18 18 18 21 25 25 24 25 24
11 8 8 11 11 14 19 19 18 18 14 7 4 4 4 5 6 8 10 10 10 10 13 16 18 18 14 11 12 16 18 18 18 16 17 16 15 16 16 15 16 16 15 14 14 15 17 16 16 19 18 17 17 15 15 15 15 14 14 14 15 15 15 16 18 19 19 19 20 20 18 17 18 18 19 20 20 18 18 19 22 22 21 23 24 23
9 8 7 10 10 12 14 15 18 20 20 17 14 11 5 1 3 7 12 14 15 12 8 8 10 11 10 8 7 9 14 19 22 20 21 21 20 20 19 16 15 15 14 13 11 13 15 16 17 21 21 18 17 16 15 15 15 16 17 17 17 16 16 17 18 19 21 22 22 22 21 21 22 21 20 20 21 19 17 19 21 21 21 22 23 24
9 9 10 11 10 10 10 8 10 14 15 17 23 23 16 9 4 3 7 10 13 11 7 7 9 9 9 10 9 10 15 22 27 26 26 26 26 26 25 23 20 18 16 15 13 14 16 17 18 21 22 20 18 18 18 18 18 19 19 20 19 19 18 18 18 19 19 20 21 20 20 21 23 23 21 20 21 20 18 19 19 19 21 21 20 20
12 10 10 12 11 9 7 8 7 8 8 9 17 25 24 19 14 10 7 5 5 4 1 1 3 5 7 8 6 4 8 14 22 27 29 30 30 31 32 30 29 28 25 23 22 21 22 22 22 23 24 23 22 21 21 21 20 19 20 20 20 20 19 19 19 19 19 19 20 21 21 21 22 22 20 19 20 19 19 20 19 18 19 19 18 18
12 12 10 10 10 7 8 10 7 6 7 7 9 16 21 23 23 21 19 16 13 11 9 9 9 5 4 4 4 4 4 5 12 18 20 22 23 26 27 28 29 30 29 28 27 26 25 25 24 24 24 24 24 24 23 23 22 22 22 21 20 20 19 19 20 19 19 19 19 19 20 20 19 20 19 18 18 18 18 19 19 18 17 18 18 18
8 12 13 10 8 7 9 11 6 1 4 8 8 8 11 17 21 21 19 20 20 19 18 17 15 12 9 7 7 9 7 6 8 11 13 13 12 14 17 19 20 22 24 25 26 27 27 26 25 24 23 23 23 23 23 24 24 24 23 22 21 20 19 19 19 20 19 19 18 18 19 20 19 19 19 19 18 18 18 18 18 18 17 18 17 17
10 9 11 11 10 8 8 11 8 2 3 6 7 7 9 12 13 12 11 13 15 14 16 18 15 12 12 10 9 11 11 10 11 11 13 15 13 12 13 14 15 16 17 20 22 24 28 30 30 28 26 25 24 24 23 23 23 23 23 23 22 22 21 20 19 20 19 19 20 21 21 22 23 21 21 20 19 20 19 19 19 20 21 21 20 20
14 11 8 7 8 7 9 9 8 5 4 7 9 11 13 12 13 14 10 8 8 7 7 10 11 10 10 10 10 10 8 9 12 14 15 16 15 15 15 14 16 16 16 16 18 20 25 28 30 30 29 28 29 29 27 26 25 24 23 22 22 22 22 22 21 20 21 22 23 24 24 23 22 21 20 19 19 22 22 21 22 23 24 25 25 25
14 14 11 8 8 8 9 9 6 3 3 6 9 12 11 9 11 14 11 8 9 9 8 8 8 8 8 8 7 6 5 5 11 16 18 18 18 17 16 15 15 15 15 16 17 19 20 21 22 24 23 23 23 24 24 24 25 26 25 24 24 24 25 26 25 24 25 25 25 25 25 24 21 20 19 19 21 23 24 23 24 25 26 27 28 29
12 13 13 14 14 12 12 11 6 1 4 4 7 10 10 10 12 11 9 9 11 10 9 9 9 9 8 8 6 6 8 10 13 19 19 18 18 17 16 14 13 13 14 15 16 16 15 13 13 14 13 11 12 13 15 17 21 24 25 25 25 26 25 25 24 25 26 26 25 25 24 24 23 22 23 23 25 27 27 27 27 28 28 29 30 30
9 11 13 16 16 13 13 12 5 4 4 2 4 9 12 13 12 9 6 9 11 10 10 9 8 7 6 8 9 11 13 17 20 21 18 16 17 16 16 15 14 14 13 14 14 15 13 11 11 12 11 11 11 12 13 15 18 20 22 23 24 23 22 20 21 23 25 25 25 25 24 24 25 25 26 26 28 30 30 29 29 30 30 31 30 29
6 8 11 14 13 11 13 12 5 4 3 3 1 6 11 10 7 7 7 8 8 9 10 8 7 6 6 10 15 18 18 21 24 22 16 15 16 16 17 16 15 15 14 14 15 15 14 14 14 13 13 13 13 13 14 15 16 18 19 21 22 21 20 20 21 23 25 26 27 27 27 27 27 28 28 28 29 31 32 31 31 32 31 30 30 29
4 7 9 8 8 9 11 10 3 3 1 0 3 4 8 7 4 6 9 7 7 8 8 7 7 6 5 8 12 15 17 21 23 21 18 16 15 16 17 17 17 17 17 17 17 17 17 18 17 17 16 16 16 16 17 17 18 18 19 21 22 22 22 23 24 25 27 28 28 29 29 29 29 29 30 30 31 32 32 32 32 31 30 29 29 30
3 5 5 3 3 4 5 2 3 4 3 5 6 5 7 6 6 7 8 8 8 7 5 5 7 6 5 5 8 12 15 18 20 20 20 19 18 18 18 19 19 20 19 20 20 20 20 21 22 21 21 21 21 21 21 21 21 22 23 24 25 26 26 26 28 29 30 30 31 31 31 31 30 30 30 31 31 32 32 32 32 31 31 30 30 30
2 2 0 1 1 1 1 3 6 5 4 5 6 6 7 7 6 7 10 10 9 7 5 7 10 11 10 9 11 13 16 18 19 21 21 20 20 20 20 21 22 22 23 23 24 24 24 24 25 26 26 27 27 27 27 27 27 28 28 28 30 31 31 31 32 33 33 34 34 34 34 33 33 32 32 33 33 33 33 32 32 33 32 32 32 33
2 2 1 0 1 2 3 4 5 4 4 6 8 8 9 9 8 9 12 13 10 9 10 10 12 13 14 15 15 16 18 19 20 21 21 22 22 23 23 24 25 26 27 27 28 28 28 28 29 30 30 31 32 32 32 33 33 33 33 33 33 34 35 35 36 36 37 37 37 37 37 36 36 36 36 35 35 34 34 34 34 34 35 35 35 35
1 1 1 2 1 2 3 3 4 3 3 4 6 7 7 9 9 9 10 11 10 10 10 10 10 11 14 17 17 18 19 20 21 21 22 23 24 25 26 27 27 28 29 30 31 32 31 32 33 33 34 35 35 36 36 36 37 37 37 37 37 37 38 38 39 40 40 40 39 39 39 39 39 39 39 38 37 37 37 37 37 38 38 38 38 38
0 1 2 1 1 3 5 5 5 4 4 4 3 2 2 4 7 7 8 8 8 9 10 10 10 12 14 15 17 18 18 19 20 20 22 23 24 25 26 27 28 29 30 31 32 33 33 34 35 36 37 37 38 39 39 40 40 40 41 41 42 42 42 43 43 44 44 44 43 43 42 42 42 42 41 41 40 40 40 39 39 40 41 40 39 40
1 0 1 1 3 5 6 7 6 5 5 5 4 4 3 3 3 4 4 5 5 8 10 11 11 12 13 14 15 16 18 19 20 20 21 23 25 26 27 28 28 30 30 32 33 33 34 34 35 36 36 37 37 38 38 39 40 40 40 41 42 42 43 43 44 45 45 45 45 45 45 45 45 45 44 44 44 44 43 41 41 42 43 42 41 42
1 1 1 2 4 5 6 7 6 4 4 5 5 4 4 3 2 2 3 3 4 6 9 10 11 13 15 16 16 16 18 20 21 21 21 22 24 26 27 27 28 28 28 29 29 30 30 30 31 31 32 32 33 33 34 35 36 36 36 37 39 40 40 41 41 42 42 42 42 41 41 41 42 43 44 45 46 46 46 45 45 46 47 46 44 43
0 1 1 1 3 5 7 7 4 2 3 5 4 3 2 1 1 2 3 4 6 10 12 12 13 15 16 17 16 15 16 18 19 19 19 20 22 23 23 23 23 23 23 24 24 24 25 26 27 28 29 29 30 31 32 33 34 35 35 36 37 38 39 40 40 41 41 41 41 40 38 38 38 39 40 41 43 44 45 46 46 48 49 47 45 45
Wind_Direction
199 211 213 218 218 214 215 215 223 247 260 248 231 215 218 222 214 217 217 192 190 205 212 218 224 224 227 226 215 210 212 215 215 214 213 216 222 223 219 216 215 217 219 220 224 224 222 222 225 225 220 225 227 219 214 200 194 204 204 184 174 173 171 162 157 163 161 154 157 156 144 136 130 119 107 95 80 66 51 37 28 20 11 3 351 316
204 219 219 219 221 219 216 217 230 252 255 245 242 223 219 225 218 210 205 184 189 212 217 218 226 228 229 230 219 208 211 214 213 211 213 217 220 222 219 215 215 217 220 221 223 224 221 219 222 221 219 228 232 220 205 201 202 203 200 194 180 166 162 163 170 177 164 152 159 155 143 142 137 123 114 104 89 74 59 45 34 26 12 2 0 358
212 225 222 218 217 213 208 212 228 240 235 233 239 239 225 222 218 203 192 190 194 209 224 225 225 230 231 228 214 204 214 217 212 212 216 215 215 221 219 215 215 216 220 222 222 225 223 219 215 215 220 227 235 224 206 207 207 202 199 201 192 166 160 168 179 184 166 152 159 156 151 153 143 129 119 105 90 75 61 49 35 28 18 11 11 8
216 225 219 215 210 208 213 218 227 230 229 230 232 235 230 219 215 205 199 215 214 211 226 229 227 230 225 213 204 205 215 217 213 212 213 212 211 218 218 214 214 216 222 225 222 224 223 217 208 212 220 226 236 230 212 213 206 190 182 184 189 180 173 177 186 190 171 153 160 163 162 158 143 132 117 103 84 66 55 45 32 25 20 14 10 4
226 222 204 204 206 209 219 223 223 224 224 227 228 231 231 220 218 220 212 210 211 217 226 232 232 224 210 203 206 212 212 208 209 207 208 210 209 216 219 214 213 216 223 224 221 219 218 214 211 218 229 235 239 233 213 213 203 181 172 176 191 194 186 183 187 190 169 153 165 169 167 160 143 138 133 120 83 57 41 34 28 21 16 9 6 2
233 213 196 206 214 213 217 220 217 219 222 225 226 228 235 234 224 222 209 198 212 222 216 219 231 217 201 207 210 208 208 205 204 204 206 207 206 214 217 212 212 216 224 226 220 217 216 220 227 232 245 248 242 234 218 212 202 186 181 182 196 195 185 184 184 181 164 161 176 175 173 171 158 158 157 144 114 53 27 25 23 20 15 9 8 3
227 215 215 221 221 215 217 222 218 216 224 229 224 222 233 246 231 215 207 208 221 233 211 212 230 221 197 206 207 201 206 207 204 202 202 203 208 215 216 211 211 215 226 229 219 208 169 103 243 241 238 243 245 243 231 217 207 202 193 183 192 188 181 186 183 169 166 178 184 185 188 187 181 177 167 155 146 64 26 17 20 22 19 13 8 2
222 221 219 212 212 214 217 223 218 212 223 233 222 214 223 233 228 217 221 222 227 244 224 214 228 228 200 202 199 194 203 205 205 208 205 206 210 213 215 212 213 220 229 232 212 170 207 143 153 255 233 233 240 246 242 225 212 207 197 188 191 186 182 187 179 162 169 189 195 203 208 208 208 199 183 166 131 50 14 7 23 33 25 17 7 358
219 224 216 203 204 211 217 222 216 209 220 232 220 211 215 220 223 223 229 232 234 239 234 217 218 225 218 204 192 188 202 204 204 209 209 212 213 214 215 211 218 228 224 220 208 217 218 178 183 211 212 219 224 233 241 234 221 210 198 194 193 183 178 180 173 165 177 196 208 219 221 222 228 221 209 197 142 19 7 14 39 42 28 18 9 359
215 218 212 204 202 211 220 219 210 207 214 222 214 212 213 218 223 225 230 234 232 234 242 224 210 220 215 188 185 191 205 206 202 201 205 209 209 213 214 209 222 232 206 178 213 216 208 191 195 199 191 206 213 218 231 239 237 226 216 218 216 206 193 182 179 180 186 200 211 221 224 226 232 230 219 208 184 338 353 31 51 36 23 15 8 1
230 208 202 201 204 217 223 207 199 202 208 209 207 209 210 216 220 224 231 233 230 231 242 228 209 221 214 177 195 209 207 205 199 193 197 203 206 212 214 212 225 234 189 180 212 214 212 207 202 207 203 203 209 213 217 224 229 225 224 224 220 223 215 200 198 192 186 197 208 215 222 225 232 233 221 210 203 307 329 24 38 21 14 10 4 358
232 214 204 206 214 228 226 209 207 207 212 215 215 212 207 210 214 219 223 226 232 233 234 226 206 218 225 183 192 197 185 188 191 196 202 207 212 214 216 222 229 234 206 199 212 210 212 215 209 212 213 211 218 225 220 217 222 221 220 218 210 215 218 215 220 208 185 191 206 212 221 225 232 235 224 218 224 265 289 337 4 4 5 2 357 353
222 217 207 209 218 221 219 216 207 207 214 215 217 218 211 207 212 219 218 215 229 234 229 223 204 213 226 184 164 164 166 173 171 187 206 209 210 208 216 228 229 228 221 214 218 215 212 218 218 213 213 218 230 238 226 217 223 222 220 220 212 214 222 225 232 220 188 189 207 212 220 226 229 235 234 231 228 230 240 298 335 341 347 350 349 343
211 213 209 209 214 213 214 214 199 197 209 212 214 218 215 209 211 224 225 215 224 225 211 210 209 218 214 156 158 189 198 198 194 203 215 217 217 216 221 226 220 215 216 218 225 228 223 222 223 222 224 227 232 233 225 219 222 225 225 227 223 222 225 226 231 225 196 195 211 212 217 225 227 233 236 235 232 229 241 287 312 318 328 338 343 334
207 211 208 207 209 207 211 219 213 200 206 213 217 221 223 221 218 228 237 232 236 221 195 197 210 227 218 170 173 205 207 203 206 211 212 205 204 206 207 204 195 194 208 224 233 239 238 232 227 228 229 230 225 222 222 219 220 225 226 226 227 228 229 228 231 231 213 210 218 215 213 217 224 234 238 242 245 242 254 282 296 306 320 331 337 328
217 221 211 207 209 207 210 218 223 216 211 212 217 224 227 226 227 236 258 307 308 286 208 201 210 225 225 180 184 202 202 196 196 188 167 161 168 170 164 164 174 189 202 221 236 243 244 238 230 227 226 226 225 220 221 221 222 225 226 225 226 229 231 231 231 230 223 221 221 217 214 212 218 234 243 248 252 252 262 280 291 301 314 324 328 320
222 229 211 201 205 209 212 214 218 224 223 210 217 227 229 229 237 246 239 194 253 277 230 209 219 215 199 191 191 190 193 199 198 191 181 167 160 153 145 153 190 211 203 207 232 244 247 242 233 230 229 228 229 227 226 225 223 226 227 226 226 228 231 230 228 227 225 224 221 217 214 209 213 230 242 248 252 258 268 280 287 293 301 314 321 310
232 241 212 193 203 209 211 219 221 226 231 218 218 228 228 229 241 252 254 199 205 240 229 214 219 214 205 194 185 186 196 196 186 193 197 182 167 160 156 171 206 226 220 185 207 242 252 233 214 215 223 228 231 234 238 235 229 226 227 226 227 229 230 231 230 231 229 226 223 220 215 209 214 230 243 248 249 254 264 271 274 277 284 304 318 300
233 249 227 198 211 214 209 223 228 223 229 231 230 228 225 230 231 231 239 232 222 233 231 219 213 225 236 207 182 192 198 180 166 180 185 171 173 183 190 222 235 247 260 238 155 195 205 140 157 179 195 209 219 225 234 238 236 231 229 227 226 225 226 228 230 232 232 229 228 229 226 221 222 234 245 246 244 250 258 261 261 265 272 289 309 295
217 237 231 208 218 217 206 217 225 221 222 229 240 238 227 233 240 231 227 233 235 229 228 228 219 223 227 189 187 193 184 179 184 191 188 178 181 205 218 227 205 234 261 235 140 111 97 105 121 148 162 175 189 200 213 224 230 230 228 225 223 221 220 223 225 228 232 232 234 235 230 224 224 232 239 241 242 247 253 256 256 260 266 277 295 293
216 222 228 225 226 219 211 215 220 222 219 218 225 230 225 224 231 238 235 236 243 241 227 230 223 152 117 138 185 197 185 194 206 196 192 194 180 174 175 165 162 167 185 164 136 122 107 98 109 123 137 158 170 184 200 211 217 217 214 216 220 217 212 216 219 224 230 230 227 220 213 213 219 226 233 239 244 247 250 252 253 257 261 271 285 289
219 219 227 231 226 222 223 221 219 225 228 221 219 225 228 225 222 230 233 230 238 247 247 239 224 114 133 144 165 192 183 179 181 167 168 185 180 171 171 169 173 169 146 135 128 122 111 100 105 113 126 142 152 175 195 204 209 208 208 209 209 200 190 189 198 212 220 216 204 195 202 217 223 228 234 239 242 245 248 251 253 256 261 267 274 278
217 221 233 233 228 231 239 234 224 226 233 234 229 227 228 228 229 234 237 231 233 239 249 252 250 112 159 168 165 186 180 156 162 169 175 185 182 173 170 173 179 163 141 135 130 123 115 108 106 104 111 128 146 174 189 196 200 198 193 188 183 180 177 172 175 189 205 210 203 200 211 222 227 233 236 238 241 244 247 251 254 258 261 264 266 267
213 219 241 244 243 252 255 248 240 235 234 238 238 233 231 233 234 237 243 261 253 240 241 248 241 125 167 193 193 191 172 155 168 184 193 195 184 173 172 173 174 160 146 142 139 135 128 121 114 107 107 118 139 169 182 189 193 190 183 180 180 178 172 165 172 195 213 218 216 215 220 226 232 237 238 238 240 244 247 251 254 257 260 260 260 262
211 209 236 251 257 259 251 239 234 233 232 235 237 236 237 240 242 244 245 248 251 246 247 256 243 140 170 193 194 182 162 157 173 188 200 201 186 176 172 168 166 158 153 152 151 151 145 136 129 123 120 121 128 146 162 171 180 187 186 181 176 173 172 176 192 214 227 227 224 224 227 231 234 239 242 243 244 247 250 252 252 253 254 255 255 258
221 221 235 246 255 255 246 252 274 273 251 236 233 238 242 240 240 248 250 243 243 243 245 251 216 139 167 179 178 178 171 169 182 190 193 190 183 176 168 165 167 165 161 160 162 165 160 154 150 144 144 145 142 142 145 149 159 170 174 170 169 177 189 200 208 217 224 226 225 224 225 229 235 240 243 245 246 246 245 247 248 248 249 250 251 254
219 226 231 231 235 238 239 258 293 324 304 248 231 235 243 238 235 242 248 249 248 242 245 247 211 158 162 169 162 166 166 164 176 186 183 180 180 176 171 172 175 175 168 163 167 168 161 160 165 165 166 166 163 162 160 160 162 164 168 173 180 189 196 202 209 213 217 222 228 228 224 223 227 235 239 241 244 244 241 242 245 246 245 246 247 248
206 210 214 214 217 215 223 246 258 309 340 281 231 224 236 232 227 233 240 248 251 251 261 242 181 159 156 158 154 154 154 152 166 180 181 181 181 177 175 177 177 176 174 173 176 175 169 168 172 175 179 180 179 180 180 179 180 181 185 190 193 197 203 206 207 212 220 224 230 239 238 228 221 226 234 240 247 251 250 246 246 244 239 239 243 245
209 210 216 216 215 210 207 233 238 239 351 3 274 158 236 203 191 203 227 243 242 232 204 153 146 138 130 140 157 169 172 166 173 186 187 182 180 177 174 173 174 179 181 181 183 183 180 178 178 180 184 187 188 190 192 191 191 194 197 199 202 205 209 211 211 215 224 230 234 238 240 239 236 234 236 240 245 251 253 250 247 244 238 233 236 240
211 213 218 215 218 227 230 235 228 216 211 13 9 17 30 71 116 124 116 112 139 155 161 173 171 149 140 163 186 192 191 178 168 174 180 177 171 168 165 163 169 182 186 184 182 185 185 182 183 186 184 186 189 192 196 194 191 194 199 202 209 212 213 216 219 221 226 235 241 241 238 242 249 250 247 246 244 242 243 244 245 247 247 243 243 247
218 227 227 209 214 238 243 244 237 220 214 230 282 318 3 56 96 134 139 125 117 129 154 177 180 168 171 197 203 199 195 180 171 173 178 172 158 154 158 157 163 177 184 178 173 177 179 179 185 190 190 190 192 192 195 195 193 195 199 203 211 216 220 222 221 224 229 235 242 247 247 247 250 253 254 254 251 245 241 245 249 252 253 251 249 252
217 223 220 204 216 239 242 243 240 232 231 239 245 243 226 121 81 127 133 124 120 123 139 160 157 152 160 166 166 184 185 174 174 180 181 175 163 157 159 155 158 176 185 179 170 167 172 177 186 192 193 194 194 193 195 197 197 201 203 205 208 212 218 223 222 224 229 233 238 243 247 250 252 254 255 256 256 253 247 249 253 254 253 251 250 251
210 208 208 205 222 240 229 219 225 228 236 245 242 235 223 221 241 147 128 126 125 122 113 117 117 117 134 143 151 188 194 181 180 183 182 182 180 176 173 164 161 168 169 168 171 173 174 179 187 194 197 200 201 200 201 204 207 208 208 207 207 206 210 218 221 223 226 231 236 240 244 249 253 255 256 257 259 260 257 255 252 250 252 253 252 250
215 210 215 216 231 240 202 180 196 215 227 242 239 232 225 223 233 242 234 203 166 152 117 149 136 120 134 146 151 199 216 199 195 194 189 188 190 190 187 182 181 182 179 177 182 188 189 191 195 200 202 207 211 211 211 212 211 211 211 210 210 209 211 217 222 226 228 232 238 242 246 250 254 257 261 263 266 268 268 266 263 258 257 257 257 257
219 220 223 222 229 223 173 171 194 218 223 234 237 231 227 227 233 243 248 244 238 240 250 266 272 262 204 197 227 266 282 245 224 218 209 201 196 193 193 193 196 197 197 197 199 198 197 197 200 204 206 209 213 215 215 212 209 210 211 212 214 216 217 221 225 229 232 236 240 244 248 251 255 259 262 264 265 266 266 268 270 269 270 270 268 267
218 221 224 217 200 179 170 186 203 230 224 234 239 228 223 229 235 242 245 244 244 245 244 251 260 258 240 230 242 255 266 272 261 255 252 245 229 214 209 208 207 203 202 206 208 203 199 199 201 204 206 208 213 216 218 217 214 214 213 213 215 218 220 225 229 233 237 240 243 247 252 255 257 258 259 259 260 262 264 268 272 274 276 276 275 272
216 215 222 219 199 192 212 209 200 213 231 220 221 201 192 208 219 221 225 230 232 237 241 241 238 235 231 226 228 236 245 257 262 264 267 267 260 251 241 235 236 229 217 215 214 207 206 208 207 205 204 206 210 214 217 218 218 218 217 216 218 219 221 226 231 235 239 241 243 247 251 252 253 253 253 255 258 261 263 268 273 275 277 278 277 275
226 221 219 228 211 219 251 234 205 217 211 188 199 204 201 204 202 195 191 190 188 184 203 221 216 210 215 216 211 212 221 248 255 249 249 254 255 256 253 246 250 252 246 240 233 221 216 215 212 209 207 210 214 214 214 216 216 217 219 221 224 227 228 229 232 235 237 238 241 244 247 248 250 252 254 257 262 263 264 266 270 272 273 275 276 275
232 226 219 234 232 228 249 251 241 234 171 179 204 209 206 203 195 195 192 167 159 157 152 160 161 159 173 175 171 182 187 226 251 245 240 242 247 252 255 252 248 248 247 247 245 236 229 222 214 212 213 216 218 216 215 216 217 220 225 229 233 235 235 234 234 233 234 237 240 244 245 245 249 254 257 260 261 261 262 264 266 267 268 271 272 273
227 229 224 232 238 235 240 249 253 107 114 165 205 200 188 172 171 189 200 175 160 152 148 153 149 150 159 148 152 205 198 188 224 241 240 241 246 250 255 255 251 247 245 244 245 245 245 238 228 228 230 230 228 221 216 214 215 220 226 230 232 232 233 234 235 233 234 237 240 244 246 245 248 254 258 260 260 261 263 264 264 265 266 267 268 268
227 234 232 238 243 242 242 244 229 115 121 178 202 188 174 165 171 184 182 171 164 144 142 162 163 154 153 153 183 220 207 193 214 233 239 243 248 250 251 251 250 249 248 246 246 247 249 248 245 245 246 242 236 227 218 213 213 217 221 224 227 228 230 232 231 231 234 236 238 242 246 247 250 254 256 257 258 261 264 265 264 263 263 263 263 263
241 240 238 243 246 247 248 240 202 140 198 247 244 174 161 154 175 179 153 160 168 145 139 156 155 139 148 176 201 217 215 212 224 234 240 248 250 248 249 251 251 250 249 248 249 249 250 250 246 243 241 239 236 232 227 222 221 221 222 225 228 230 231 232 232 232 234 236 239 244 249 252 254 256 256 256 256 259 263 266 265 264 263 260 259 259
262 251 251 253 247 253 257 245 184 87 246 178 70 135 155 138 136 155 146 144 152 144 137 140 136 130 146 186 210 219 220 224 231 235 242 252 255 253 253 254 254 255 253 252 252 251 252 253 250 246 242 238 236 234 233 232 232 231 231 233 236 237 237 239 240 240 240 242 245 249 253 254 255 256 255 254 255 257 261 264 264 263 261 257 256 256
256 254 268 287 256 268 288 251 134 84 72 99 100 131 160 139 118 135 141 131 132 140 148 158 164 162 161 189 223 233 231 231 234 239 247 254 257 258 259 260 260 261 261 260 259 258 258 259 258 257 254 250 246 242 239 239 239 239 240 242 245 246 246 247 248 249 250 251 252 254 256 256 256 255 255 254 254 256 259 260 260 259 257 256 254 254
223 211 273 352 237 186 89 129 147 139 118 127 138 149 156 145 128 140 158 158 149 151 175 205 217 215 208 216 236 243 240 238 241 246 251 256 259 260 261 262 263 264 264 264 264 264 264 264 264 264 264 262 261 258 255 252 250 249 249 249 251 252 252 252 253 253 254 255 256 256 257 257 257 256 256 255 254 255 256 257 256 255 255 256 255 253
224 234 258 336 112 120 113 128 152 167 187 199 202 198 190 185 173 169 184 197 202 203 212 233 244 238 232 236 245 247 245 244 247 251 254 257 260 261 262 263 265 266 266 267 267 267 267 267 267 267 266 266 265 264 263 261 260 258 257 257 257 258 258 258 258 258 257 257 257 256 256 256 256 255 254 254 253 252 253 253 253 254 254 255 256 254
265 236 125 120 131 122 116 122 141 159 178 202 215 221 223 221 217 217 225 237 246 247 246 250 250 241 237 240 245 249 250 250 253 256 258 261 262 263 264 266 267 268 269 270 270 270 270 270 269 269 268 268 267 266 266 266 265 265 264 264 263 263 262 262 262 262 262 261 260 259 257 256 255 254 254 253 252 251 251 250 251 253 254 254 254 254
256 176 101 84 165 167 159 150 136 125 117 115 134 155 189 226 230 234 244 253 256 254 251 251 249 245 244 246 250 254 257 257 258 261 263 265 267 267 268 269 270 271 272 272 272 273 273 273 273 273 272 272 271 271 270 270 269 268 268 267 267 266 266 265 264 264 264 263 262 261 260 258 257 256 255 254 252 251 251 251 251 251 252 252 252 252
84 331 272 183 137 135 150 151 134 123 127 124 116 119 128 150 182 200 219 234 240 240 240 246 252 253 254 257 260 263 266 267 266 267 270 272 273 273 274 274 274 274 274 275 275 275 276 276 276 275 275 275 275 275 275 274 273 273 273 272 271 271 271 271 270 269 268 267 265 263 261 260 259 257 256 254 253 251 252 252 253 252 252 252 253 253
42 339 276 206 157 145 155 152 138 132 157 158 146 140 142 139 142 183 210 214 234 251 257 263 269 270 271 271 269 270 274 275 273 273 274 274 275 276 276 277 277 278 277 277 277 278 278 278 278 278 278 278 278 278 279 278 278 277 276 275 274 274 273 272 272 271 270 269 268 266 264 262 260 259 257 256 254 254 253 253 254 255 255 256 256 255
186 131 89 172 162 154 155 151 135 119 154 165 168 174 178 169 179 234 254 258 261 268 275 279 282 282 282 279 276 275 277 279 279 279 279 278 278 278 279 280 281 281 281 281 281 282 283 283 282 282 282 282 282 281 281 280 280 278 277 275 274 273 272 271 270 269 268 268 267 265 264 262 260 258 257 256 256 255 254 253 254 256 257 256 255 254
Height
3089 3089 3089 3088 3088 3089 3089 3089 3089 3087 3086 3086 3086 3086 3086 3086 3086 3087 3088 3090 3093 3094 3095 3096 3096 3097 3098 3099 3100 3101 3103 3104 3106 3107 3106 3106 3107 3107 3107 3108 3108 3108 3108 3108 3107 3107 3107 3105 3104 3105 3107 3106 3104 3106 3111 3117 3118 3115 3117 3123 3126 3128 3129 3131 3132 3131 3133 3134 3136 3137 3137 3137 3137 3137 3138 3138 3138 3138 3137 3137 3136 3136 3136 3136 3136 3136
3088 3087 3086 3087 3087 3088 3088 3088 3088 3087 3088 3088 3086 3085 3085 3085 3084 3086 3087 3089 3092 3093 3093 3094 3095 3095 3096 3097 3097 3098 3100 3101 3103 3104 3104 3105 3106 3105 3105 3106 3106 3107 3106 3106 3106 3105 3103 3101 3101 3105 3108 3107 3103 3105 3112 3115 3116 3117 3120 3124 3127 3129 3130 3131 3132 3133 3134 3135 3137 3137 3137 3138 3138 3138 3138 3138 3138 3138 3137 3137 3137 3136 3136 3136 3136 3136
3086 3085 3085 3086 3086 3086 3086 3087 3087 3087 3089 3088 3088 3086 3085 3084 3083 3084 3086 3088 3091 3092 3092 3092 3093 3093 3094 3094 3095 3096 3098 3099 3101 3102 3102 3103 3104 3103 3104 3104 3104 3105 3105 3104 3104 3102 3099 3098 3102 3106 3108 3106 3103 3105 3111 3115 3118 3123 3125 3127 3129 3129 3130 3132 3134 3135 3136 3135 3137 3138 3137 3138 3138 3138 3138 3139 3139 3138 3138 3138 3137 3137 3137 3137 3136 3136
3084 3082 3083 3084 3084 3085 3085 3086 3087 3088 3088 3088 3087 3086 3084 3083 3082 3083 3086 3088 3090 3091 3090 3091 3091 3091 3092 3093 3094 3095 3097 3098 3099 3100 3101 3101 3103 3103 3102 3103 3103 3103 3103 3103 3101 3098 3097 3099 3104 3107 3107 3106 3103 3105 3112 3116 3120 3125 3127 3127 3128 3128 3130 3132 3135 3137 3136 3134 3136 3137 3137 3137 3138 3138 3139 3139 3139 3139 3139 3138 3138 3138 3137 3137 3136 3136
3082 3080 3082 3083 3083 3084 3086 3086 3087 3087 3087 3087 3086 3085 3083 3082 3082 3083 3085 3087 3089 3089 3089 3089 3089 3088 3090 3092 3093 3093 3095 3096 3096 3098 3099 3100 3102 3102 3100 3101 3102 3102 3103 3101 3096 3095 3099 3103 3107 3109 3110 3109 3105 3107 3114 3116 3119 3123 3125 3125 3126 3127 3129 3132 3135 3136 3134 3134 3136 3137 3137 3137 3138 3138 3139 3139 3139 3139 3139 3139 3138 3137 3137 3137 3137 3136
3080 3079 3080 3082 3082 3084 3085 3085 3085 3086 3085 3085 3084 3083 3082 3082 3082 3083 3085 3087 3087 3086 3086 3088 3086 3084 3087 3090 3091 3092 3092 3093 3094 3096 3097 3099 3100 3100 3099 3100 3101 3102 3100 3094 3091 3097 3105 3108 3110 3111 3112 3109 3106 3110 3115 3117 3118 3121 3123 3124 3125 3127 3129 3132 3134 3135 3134 3134 3137 3138 3137 3138 3138 3139 3139 3140 3140 3140 3139 3139 3138 3138 3138 3137 3137 3137
3079 3077 3079 3081 3082 3083 3083 3083 3084 3084 3084 3082 3081 3082 3082 3082 3082 3082 3084 3085 3084 3083 3083 3085 3083 3081 3084 3087 3088 3090 3091 3092 3093 3094 3096 3098 3098 3098 3098 3098 3099 3099 3093 3089 3093 3102 3107 3109 3111 3111 3111 3108 3107 3111 3116 3117 3119 3119 3122 3124 3125 3127 3130 3133 3135 3134 3134 3136 3137 3138 3138 3138 3138 3139 3140 3140 3140 3140 3139 3139 3138 3138 3138 3138 3138 3137
3077 3077 3078 3079 3081 3081 3082 3081 3082 3083 3082 3080 3080 3081 3082 3082 3082 3083 3084 3083 3082 3083 3083 3084 3083 3080 3081 3084 3085 3088 3090 3091 3092 3092 3093 3095 3095 3096 3096 3097 3098 3094 3089 3092 3100 3104 3105 3107 3109 3109 3109 3109 3109 3111 3113 3114 3115 3117 3121 3123 3124 3127 3130 3132 3133 3133 3134 3136 3136 3137 3138 3138 3139 3140 3140 3141 3141 3140 3139 3139 3139 3139 3139 3138 3138 3138
3075 3076 3077 3078 3079 3080 3079 3079 3080 3081 3081 3079 3080 3081 3081 3082 3082 3083 3083 3081 3082 3083 3081 3080 3081 3079 3079 3082 3084 3086 3088 3089 3090 3090 3091 3092 3093 3094 3094 3096 3094 3087 3089 3098 3102 3102 3104 3106 3106 3106 3107 3108 3110 3111 3111 3112 3114 3118 3122 3123 3123 3125 3128 3130 3130 3130 3132 3134 3135 3136 3137 3138 3139 3139 3140 3140 3140 3140 3140 3139 3139 3139 3139 3139 3139 3138
3074 3075 3076 3077 3078 3078 3077 3077 3078 3079 3079 3079 3080 3080 3081 3081 3081 3082 3081 3080 3082 3082 3078 3078 3080 3078 3078 3080 3083 3084 3085 3086 3087 3089 3089 3090 3092 3092 3092 3095 3090 3084 3092 3100 3099 3100 3103 3104 3105 3104 3105 3106 3108 3110 3111 3113 3117 3121 3124 3124 3123 3124 3125 3126 3127 3128 3131 3132 3133 3135 3136 3137 3138 3139 3139 3140 3140 3140 3140 3139 3139 3139 3139 3139 3139 3139
3073 3073 3074 3075 3076 3076 3076 3076 3077 3078 3078 3079 3079 3080 3080 3080 3080 3081 3080 3080 3081 3080 3077 3077 3078 3077 3075 3078 3081 3082 3083 3085 3086 3086 3087 3088 3089 3090 3091 3092 3087 3088 3095 3099 3098 3100 3101 3102 3104 3104 3105 3106 3106 3107 3110 3113 3117 3120 3122 3122 3123 3124 3124 3124 3125 3126 3128 3131 3132 3133 3135 3136 3137 3138 3138 3139 3139 3139 3140 3139 3139 3139 3139 3139 3139 3139
3072 3072 3073 3073 3074 3074 3075 3075 3076 3077 3077 3078 3079 3078 3078 3078 3078 3078 3078 3079 3079 3078 3075 3075 3077 3077 3076 3077 3079 3081 3082 3083 3085 3086 3087 3088 3087 3089 3091 3090 3087 3092 3097 3098 3098 3099 3100 3102 3103 3104 3105 3106 3105 3107 3109 3113 3116 3119 3120 3121 3122 3123 3123 3124 3127 3126 3125 3129 3132 3132 3134 3135 3136 3137 3138 3138 3138 3139 3139 3139 3139 3139 3139 3139 3139 3139
3071 3071 3072 3072 3073 3073 3075 3075 3075 3076 3077 3077 3077 3076 3075 3076 3077 3076 3075 3075 3076 3074 3074 3074 3075 3076 3076 3076 3078 3080 3081 3082 3084 3086 3086 3086 3087 3088 3089 3088 3089 3093 3095 3096 3097 3098 3099 3101 3102 3104 3105 3105 3105 3107 3110 3113 3115 3117 3119 3121 3122 3122 3123 3124 3127 3127 3125 3127 3131 3131 3133 3134 3135 3136 3137 3138 3138 3138 3139 3139 3139 3139 3139 3139 3139 3139
3069 3070 3070 3071 3071 3072 3073 3072 3072 3074 3075 3075 3074 3074 3073 3073 3077 3077 3073 3072 3072 3072 3073 3075 3075 3074 3076 3077 3078 3080 3081 3082 3083 3084 3084 3085 3086 3086 3085 3087 3090 3092 3094 3095 3095 3096 3098 3100 3101 3103 3104 3104 3105 3106 3109 3111 3113 3115 3117 3119 3121 3121 3122 3123 3125 3125 3123 3126 3129 3130 3131 3133 3134 3135 3136 3137 3137 3138 3138 3138 3138 3138 3138 3139 3139 3139
3065 3065 3066 3068 3069 3069 3071 3070 3070 3072 3073 3073 3073 3073 3072 3071 3074 3075 3071 3070 3070 3070 3072 3075 3076 3074 3074 3076 3078 3079 3080 3080 3081 3081 3082 3083 3083 3083 3083 3085 3088 3090 3091 3092 3092 3094 3096 3098 3100 3102 3103 3104 3104 3105 3108 3110 3111 3113 3114 3117 3119 3119 3120 3121 3121 3121 3122 3125 3127 3128 3130 3131 3133 3134 3135 3136 3137 3137 3137 3138 3138 3138 3138 3138 3139 3139
3062 3061 3062 3065 3066 3068 3069 3069 3070 3070 3070 3071 3072 3071 3070 3070 3072 3071 3070 3071 3072 3071 3071 3073 3075 3074 3074 3076 3078 3079 3080 3079 3079 3080 3081 3082 3081 3080 3081 3083 3084 3086 3088 3089 3090 3092 3094 3096 3099 3101 3102 3102 3103 3104 3106 3108 3111 3112 3113 3114 3116 3117 3117 3118 3119 3120 3122 3124 3125 3126 3128 3129 3131 3133 3134 3135 3136 3136 3137 3137 3137 3138 3138 3138 3138 3139
3061 3060 3061 3063 3065 3066 3067 3068 3069 3069 3068 3069 3070 3068 3068 3070 3070 3069 3070 3072 3075 3074 3072 3071 3073 3073 3074 3076 3077 3079 3080 3079 3079 3080 3081 3082 3082 3081 3080 3081 3082 3083 3086 3087 3089 3090 3092 3095 3097 3099 3100 3101 3103 3104 3105 3107 3109 3111 3113 3113 3113 3114 3114 3116 3118 3119 3121 3122 3123 3124 3126 3128 3129 3131 3132 3134 3135 3136 3136 3137 3137 3137 3138 3138 3138 3138
3061 3060 3060 3062 3063 3065 3066 3067 3068 3068 3067 3068 3068 3068 3068 3069 3070 3069 3069 3069 3072 3073 3070 3069 3072 3071 3071 3074 3076 3078 3080 3079 3078 3079 3079 3081 3082 3081 3080 3081 3082 3083 3085 3086 3088 3089 3091 3094 3096 3097 3099 3101 3102 3104 3104 3105 3107 3109 3111 3111 3111 3111 3112 3114 3115 3116 3118 3120 3121 3122 3124 3125 3127 3129 3131 3133 3135 3135 3135 3136 3136 3137 3137 3138 3138 3138
3062 3061 3060 3061 3062 3063 3065 3066 3066 3066 3067 3066 3067 3068 3068 3067 3068 3069 3069 3069 3070 3070 3068 3067 3069 3070 3070 3071 3074 3077 3078 3077 3077 3078 3079 3080 3081 3080 3080 3081 3082 3083 3084 3085 3087 3088 3090 3093 3094 3096 3098 3099 3100 3102 3103 3104 3105 3107 3108 3108 3108 3107 3109 3111 3112 3113 3115 3118 3120 3120 3121 3124 3126 3128 3130 3132 3134 3134 3134 3135 3135 3136 3137 3137 3138 3139
3062 3061 3060 3060 3061 3062 3063 3064 3063 3064 3065 3066 3067 3067 3067 3066 3066 3067 3068 3068 3067 3067 3067 3067 3066 3068 3069 3070 3073 3075 3075 3075 3076 3077 3079 3080 3081 3081 3081 3082 3083 3083 3083 3085 3086 3088 3089 3091 3093 3095 3096 3097 3098 3099 3100 3101 3102 3104 3105 3105 3104 3105 3108 3109 3109 3111 3113 3114 3117 3118 3120 3123 3125 3127 3129 3131 3132 3133 3133 3134 3134 3135 3136 3137 3138 3138
3060 3061 3060 3060 3061 3060 3060 3061 3061 3062 3062 3064 3065 3065 3065 3065 3066 3066 3066 3066 3065 3064 3065 3065 3064 3066 3069 3071 3073 3072 3072 3074 3075 3077 3078 3080 3081 3082 3082 3083 3083 3084 3084 3085 3087 3088 3089 3090 3092 3093 3094 3095 3096 3096 3097 3097 3098 3100 3102 3103 3103 3104 3107 3108 3108 3110 3112 3113 3115 3116 3119 3122 3123 3125 3128 3129 3130 3131 3131 3132 3133 3134 3135 3135 3137 3137
3058 3059 3059 3060 3060 3059 3058 3058 3060 3060 3060 3061 3062 3063 3063 3063 3064 3065 3064 3065 3065 3063 3062 3062 3064 3067 3070 3071 3072 3071 3072 3074 3075 3076 3078 3080 3081 3082 3082 3083 3084 3084 3085 3086 3087 3088 3089 3090 3091 3092 3092 3093 3094 3094 3095 3096 3097 3098 3100 3101 3102 3103 3105 3107 3108 3110 3111 3113 3115 3116 3118 3120 3121 3124 3126 3127 3128 3129 3129 3130 3131 3132 3133 3134 3135 3136
3056 3058 3058 3058 3058 3058 3057 3057 3058 3059 3059 3060 3059 3060 3061 3062 3062 3062 3061 3063 3063 3062 3062 3062 3063 3067 3070 3070 3071 3071 3073 3075 3076 3077 3078 3078 3079 3081 3082 3083 3083 3085 3086 3087 3088 3088 3089 3090 3091 3092 3092 3093 3093 3094 3095 3097 3098 3099 3100 3101 3102 3102 3104 3106 3107 3109 3111 3112 3114 3115 3117 3119 3120 3122 3123 3124 3126 3126 3127 3129 3130 3131 3132 3133 3134 3134
3056 3058 3057 3056 3057 3057 3057 3057 3058 3059 3059 3059 3058 3059 3060 3060 3061 3062 3061 3062 3062 3061 3062 3061 3062 3067 3070 3070 3071 3073 3075 3076 3076 3076 3076 3077 3079 3080 3081 3082 3083 3085 3086 3087 3088 3089 3090 3091 3091 3092 3093 3093 3094 3095 3096 3097 3098 3099 3100 3101 3102 3103 3104 3106 3107 3109 3110 3111 3113 3114 3116 3118 3119 3119 3120 3122 3124 3125 3125 3126 3128 3129 3130 3131 3132 3133
3055 3057 3057 3057 3057 3058 3058 3057 3057 3058 3059 3058 3058 3059 3059 3059 3061 3061 3061 3063 3063 3062 3062 3062 3062 3067 3070 3070 3071 3073 3075 3076 3075 3075 3075 3077 3079 3080 3081 3082 3083 3085 3086 3087 3089 3090 3091 3092 3092 3093 3094 3094 3095 3096 3096 3097 3099 3100 3101 3102 3103 3105 3106 3107 3108 3109 3110 3111 3113 3114 3115 3117 3117 3117 3118 3120 3123 3123 3123 3124 3126 3127 3128 3129 3129 3130
3055 3056 3057 3058 3058 3059 3059 3059 3059 3059 3058 3057 3057 3058 3058 3059 3060 3061 3060 3061 3061 3062 3063 3064 3065 3068 3070 3070 3071 3072 3073 3074 3074 3074 3075 3077 3078 3080 3081 3082 3083 3084 3085 3087 3088 3089 3091 3092 3093 3094 3095 3096 3097 3097 3098 3098 3099 3101 3102 3104 3105 3106 3107 3108 3109 3110 3111 3111 3112 3113 3113 3115 3116 3117 3117 3119 3120 3120 3121 3122 3124 3125 3125 3126 3127 3128
3053 3054 3056 3057 3058 3058 3060 3061 3061 3060 3057 3056 3056 3057 3058 3059 3059 3060 3060 3060 3059 3060 3062 3063 3064 3067 3069 3070 3071 3072 3072 3072 3072 3073 3075 3077 3078 3079 3081 3082 3083 3084 3085 3087 3088 3088 3089 3091 3093 3094 3095 3096 3097 3098 3098 3099 3100 3102 3103 3104 3105 3106 3107 3108 3109 3110 3110 3111 3111 3111 3112 3113 3114 3116 3116 3117 3117 3117 3120 3121 3122 3123 3123 3124 3124 3125
3052 3054 3054 3055 3057 3058 3059 3060 3060 3059 3057 3056 3055 3057 3058 3058 3058 3060 3060 3059 3060 3060 3061 3063 3064 3064 3067 3069 3070 3072 3072 3073 3072 3073 3075 3077 3077 3078 3080 3081 3082 3084 3085 3087 3088 3088 3090 3091 3093 3094 3095 3096 3097 3097 3098 3099 3100 3101 3102 3103 3104 3105 3106 3107 3108 3109 3109 3110 3111 3111 3112 3112 3111 3112 3114 3115 3116 3118 3120 3122 3122 3121 3120 3121 3122 3122
3052 3052 3053 3054 3056 3056 3057 3058 3058 3059 3058 3057 3057 3059 3059 3057 3057 3059 3059 3059 3060 3060 3061 3064 3065 3065 3068 3070 3069 3070 3072 3073 3073 3074 3074 3075 3076 3077 3079 3080 3082 3083 3085 3087 3088 3089 3090 3091 3092 3093 3094 3095 3096 3097 3098 3099 3099 3100 3101 3102 3103 3105 3106 3107 3108 3108 3108 3109 3110 3110 3111 3111 3110 3111 3112 3113 3115 3117 3119 3120 3119 3117 3117 3118 3118 3118
3050 3050 3051 3054 3055 3055 3055 3056 3057 3058 3059 3059 3059 3059 3059 3058 3057 3057 3057 3058 3059 3060 3061 3063 3065 3066 3068 3069 3068 3069 3070 3072 3073 3074 3074 3075 3075 3077 3079 3081 3082 3083 3085 3087 3088 3089 3090 3091 3092 3093 3094 3095 3096 3096 3097 3098 3099 3100 3101 3102 3103 3104 3105 3106 3107 3108 3108 3108 3108 3108 3109 3109 3110 3111 3111 3111 3114 3117 3117 3116 3115 3115 3116 3117 3118 3118
3049 3049 3050 3053 3054 3053 3054 3055 3055 3056 3057 3057 3058 3058 3059 3059 3057 3055 3056 3057 3059 3061 3061 3062 3063 3064 3066 3067 3068 3068 3070 3071 3073 3073 3073 3074 3076 3077 3079 3081 3082 3083 3084 3086 3087 3088 3090 3091 3092 3092 3093 3094 3095 3096 3096 3097 3098 3100 3101 3102 3102 3103 3104 3105 3106 3107 3107 3107 3107 3107 3107 3107 3108 3109 3109 3109 3111 3113 3114 3114 3113 3113 3116 3117 3117 3118
3047 3049 3050 3051 3052 3051 3051 3053 3054 3055 3056 3056 3057 3057 3058 3058 3057 3056 3056 3057 3059 3061 3063 3064 3064 3065 3066 3068 3068 3068 3069 3070 3071 3072 3073 3074 3074 3076 3078 3080 3082 3083 3084 3085 3086 3087 3088 3089 3090 3090 3092 3093 3094 3095 3096 3096 3097 3098 3099 3100 3101 3102 3103 3104 3104 3105 3106 3106 3106 3106 3106 3106 3107 3108 3108 3108 3108 3109 3111 3112 3111 3112 3113 3114 3115 3116
3047 3048 3049 3050 3050 3049 3050 3052 3053 3054 3056 3054 3053 3055 3056 3057 3058 3058 3057 3057 3058 3060 3063 3064 3065 3066 3068 3069 3068 3067 3067 3068 3068 3070 3071 3071 3072 3072 3073 3075 3078 3079 3081 3083 3084 3084 3084 3086 3087 3088 3089 3090 3091 3093 3094 3095 3096 3097 3098 3099 3099 3100 3101 3102 3102 3103 3104 3105 3105 3105 3105 3105 3105 3106 3107 3108 3107 3107 3108 3109 3109 3110 3111 3112 3113 3114
3046 3047 3048 3048 3048 3049 3050 3051 3053 3054 3053 3050 3050 3053 3055 3056 3057 3058 3058 3058 3058 3059 3062 3063 3064 3066 3067 3068 3068 3067 3067 3068 3069 3069 3069 3069 3069 3069 3069 3070 3072 3073 3075 3077 3079 3080 3081 3083 3084 3085 3086 3088 3089 3090 3091 3093 3094 3096 3097 3097 3098 3099 3099 3100 3100 3101 3102 3103 3104 3104 3104 3104 3104 3105 3106 3106 3106 3106 3106 3106 3106 3108 3109 3110 3111 3111
3044 3046 3046 3046 3047 3048 3049 3051 3052 3051 3049 3048 3049 3051 3053 3054 3056 3057 3058 3058 3058 3059 3061 3062 3063 3065 3066 3067 3067 3067 3068 3069 3070 3069 3068 3068 3069 3070 3070 3071 3072 3072 3073 3074 3075 3077 3079 3081 3083 3084 3086 3086 3087 3088 3089 3091 3092 3093 3094 3095 3096 3097 3098 3098 3099 3100 3101 3102 3102 3102 3103 3103 3103 3104 3104 3105 3105 3105 3105 3105 3105 3106 3107 3107 3107 3107
3043 3045 3045 3045 3046 3047 3048 3049 3050 3048 3047 3048 3049 3050 3052 3053 3054 3056 3057 3058 3058 3059 3060 3062 3063 3064 3065 3066 3067 3068 3068 3069 3069 3069 3068 3068 3070 3071 3072 3072 3073 3074 3074 3074 3075 3076 3077 3079 3081 3083 3084 3086 3087 3087 3088 3089 3090 3091 3092 3093 3094 3095 3096 3097 3097 3098 3099 3100 3101 3101 3102 3102 3102 3102 3103 3103 3103 3104 3104 3104 3104 3104 3105 3105 3105 3106
3042 3043 3045 3045 3045 3046 3046 3046 3047 3047 3047 3048 3048 3049 3050 3052 3053 3055 3056 3056 3057 3058 3059 3061 3062 3064 3065 3066 3067 3068 3068 3069 3069 3069 3068 3067 3068 3070 3071 3071 3072 3073 3074 3075 3075 3076 3076 3076 3077 3078 3081 3083 3084 3086 3087 3088 3089 3090 3091 3092 3092 3093 3094 3095 3096 3097 3098 3099 3099 3100 3101 3101 3101 3101 3101 3101 3102 3102 3102 3103 3103 3103 3103 3104 3104 3104
3042 3042 3044 3044 3044 3045 3045 3044 3044 3046 3047 3047 3047 3048 3049 3050 3052 3054 3055 3056 3057 3059 3059 3060 3061 3062 3063 3065 3066 3067 3069 3069 3069 3068 3068 3067 3067 3068 3069 3070 3070 3072 3073 3074 3074 3075 3075 3075 3075 3076 3078 3080 3081 3082 3083 3084 3086 3087 3089 3090 3091 3092 3093 3093 3094 3096 3096 3097 3098 3099 3099 3099 3099 3099 3099 3100 3100 3099 3100 3101 3101 3101 3101 3102 3102 3102
3041 3042 3043 3043 3043 3044 3044 3043 3043 3045 3047 3046 3046 3047 3048 3050 3051 3053 3055 3056 3057 3060 3061 3061 3062 3063 3064 3065 3066 3067 3069 3070 3068 3067 3067 3067 3067 3067 3067 3068 3069 3070 3071 3072 3073 3074 3074 3074 3074 3075 3076 3077 3078 3079 3080 3082 3083 3085 3086 3088 3090 3091 3091 3091 3092 3093 3094 3095 3096 3096 3096 3097 3097 3097 3098 3098 3098 3098 3099 3099 3100 3100 3100 3100 3100 3100
3041 3042 3042 3043 3043 3044 3044 3044 3044 3046 3047 3046 3045 3046 3048 3050 3051 3053 3053 3054 3056 3059 3062 3062 3063 3064 3064 3066 3067 3067 3068 3069 3066 3064 3066 3066 3066 3067 3067 3067 3068 3069 3070 3071 3071 3072 3073 3072 3073 3073 3074 3076 3076 3077 3079 3081 3082 3083 3084 3085 3086 3086 3087 3088 3089 3090 3091 3092 3093 3093 3094 3094 3095 3095 3096 3096 3096 3096 3097 3097 3097 3098 3098 3098 3098 3098
3041 3041 3042 3042 3042 3043 3043 3044 3044 3045 3046 3045 3045 3046 3047 3049 3051 3052 3052 3053 3055 3058 3061 3062 3063 3063 3064 3065 3064 3064 3065 3065 3063 3063 3065 3066 3066 3066 3067 3067 3067 3068 3068 3069 3070 3070 3071 3071 3072 3073 3073 3074 3075 3076 3077 3079 3079 3080 3081 3082 3082 3083 3084 3085 3086 3087 3088 3089 3090 3090 3090 3091 3092 3092 3093 3093 3094 3093 3093 3094 3094 3094 3095 3095 3095 3095
3041 3041 3040 3041 3042 3042 3043 3043 3043 3044 3045 3045 3045 3046 3047 3049 3051 3051 3051 3052 3054 3056 3059 3060 3060 3061 3062 3062 3061 3061 3063 3063 3062 3062 3064 3065 3065 3066 3066 3066 3067 3067 3068 3068 3069 3069 3070 3070 3070 3071 3072 3073 3074 3074 3075 3076 3077 3078 3079 3079 3080 3081 3082 3083 3083 3084 3085 3085 3086 3087 3087 3088 3088 3089 3089 3090 3090 3090 3090 3090 3091 3091 3091 3092 3092 3092
3040 3040 3040 3040 3041 3041 3041 3041 3043 3044 3045 3045 3046 3047 3048 3050 3051 3051 3052 3053 3054 3055 3056 3057 3058 3059 3059 3059 3059 3059 3061 3061 3061 3062 3063 3064 3064 3065 3065 3066 3066 3066 3067 3067 3068 3068 3069 3069 3069 3070 3070 3071 3072 3072 3073 3074 3074 3075 3076 3076 3077 3078 3079 3080 3080 3080 3081 3082 3082 3083 3083 3084 3084 3085 3086 3086 3086 3086 3086 3087 3087 3087 3087 3088 3088 3088
3040 3040 3040 3040 3040 3041 3042 3042 3044 3045 3046 3046 3046 3047 3048 3049 3051 3052 3053 3054 3054 3054 3054 3054 3055 3056 3057 3057 3057 3058 3059 3060 3061 3061 3062 3063 3063 3064 3064 3064 3065 3065 3066 3066 3067 3067 3068 3068 3068 3069 3069 3069 3069 3070 3070 3071 3071 3072 3072 3073 3073 3074 3075 3075 3076 3076 3077 3078 3078 3079 3079 3080 3080 3081 3081 3082 3083 3083 3083 3083 3083 3084 3084 3085 3085 3085
3039 3040 3040 3040 3040 3041 3042 3043 3043 3045 3045 3045 3046 3046 3047 3049 3050 3052 3052 3052 3052 3053 3053 3052 3053 3054 3055 3056 3056 3056 3058 3059 3059 3060 3060 3061 3061 3062 3062 3062 3063 3063 3064 3064 3064 3065 3066 3066 3066 3066 3066 3066 3067 3067 3067 3067 3068 3068 3068 3068 3069 3069 3070 3071 3071 3072 3072 3073 3073 3074 3074 3075 3076 3076 3077 3078 3078 3079 3079 3079 3079 3080 3080 3081 3081 3082
3039 3040 3040 3040 3040 3041 3042 3043 3043 3043 3044 3044 3044 3045 3046 3047 3048 3048 3049 3049 3050 3051 3051 3051 3052 3052 3053 3054 3055 3055 3057 3057 3058 3058 3059 3059 3059 3060 3060 3060 3060 3061 3061 3061 3061 3062 3062 3063 3062 3062 3062 3063 3063 3063 3063 3063 3063 3064 3064 3064 3064 3064 3064 3065 3065 3066 3067 3068 3068 3069 3070 3070 3071 3071 3072 3072 3073 3074 3075 3075 3075 3076 3076 3076 3077 3077
3040 3040 3040 3041 3041 3042 3043 3043 3043 3043 3043 3044 3044 3045 3045 3045 3046 3046 3047 3048 3048 3049 3050 3050 3051 3052 3053 3054 3054 3055 3056 3056 3057 3057 3057 3057 3057 3058 3058 3058 3058 3058 3058 3058 3058 3058 3058 3058 3058 3058 3058 3058 3058 3058 3058 3058 3059 3059 3059 3059 3059 3059 3059 3059 3060 3060 3060 3062 3062 3063 3064 3064 3065 3066 3066 3067 3068 3069 3069 3070 3071 3071 3071 3071 3072 3072
3040 3040 3042 3042 3042 3042 3042 3043 3043 3043 3044 3045 3045 3045 3045 3045 3045 3046 3047 3047 3048 3048 3049 3050 3051 3051 3052 3053 3053 3054 3054 3054 3055 3055 3055 3055 3055 3055 3055 3055 3055 3055 3054 3054 3054 3054 3054 3054 3053 3053 3053 3053 3052 3052 3052 3052 3052 3052 3052 3053 3053 3053 3053 3053 3053 3053 3054 3055 3056 3056 3057 3058 3059 3059 3060 3061 3062 3063 3064 3065 3066 3066 3066 3066 3066 3068
3040 3042 3043 3043 3042 3042 3043 3043 3044 3045 3046 3046 3046 3046 3046 3046 3046 3046 3047 3047 3048 3048 3048 3049 3050 3050 3051 3051 3052 3052 3052 3052 3052 3053 3052 3052 3051 3051 3051 3051 3051 3051 3050 3050 3049 3049 3049 3049 3048 3048 3047 3047 3047 3046 3046 3046 3046 3046 3046 3045 3045 3045 3046 3046 3046 3046 3047 3047 3048 3049 3050 3051 3052 3053 3054 3055 3056 3057 3058 3059 3060 3060 3060 3060 3061 3062
3041 3042 3043 3043 3043 3044 3044 3044 3045 3046 3046 3046 3046 3046 3046 3046 3046 3046 3047 3047 3047 3047 3047 3048 3048 3048 3049 3049 3049 3050 3049 3049 3049 3049 3049 3049 3048 3048 3047 3047 3047 3047 3046 3046 3046 3045 3045 3044 3044 3043 3043 3043 3042 3042 3041 3040 3040 3040 3040 3039 3039 3038 3038 3038 3039 3039 3039 3040 3040 3042 3043 3044 3045 3046 3047 3048 3049 3050 3051 3053 3054 3053 3054 3055 3056 3057
3041 3042 3042 3043 3043 3043 3044 3044 3045 3046 3046 3045 3045 3045 3045 3046 3046 3047 3046 3046 3046 3045 3046 3047 3047 3046 3047 3046 3047 3047 3047 3046 3046 3046 3046 3046 3045 3045 3044 3044 3044 3043 3043 3043 3042 3042 3041 3041 3040 3040 3039 3039 3038 3037 3036 3035 3035 3034 3034 3033 3033 3032 3032 3031 3032 3032 3032 3032 3033 3034 3036 3037 3037 3038 3039 3040 3042 3043 3044 3046 3047 3047 3047 3049 3050 3051